| time (UTC) | temp F | wind direction | speed knots | gust knots | rain 1hr in | rain 24hr in | rain mn in | humidity % | barometer mb |
| 20260905195125 | 86 | 211 | 1.7 | 5.2 | 0.00 | 0.04 | 0.00 | 34 | 1012.6 |
| 20260905194125 | 85 | 255 | 0.9 | 4.3 | 0.00 | 0.04 | 0.00 | 35 | 1012.7 |
| 20260905193625 | 85 | 250 | 0.9 | 4.3 | 0.00 | 0.04 | 0.00 | 36 | 1012.8 |
| 20260905193125 | 85 | 277 | 0.9 | 5.2 | 0.00 | 0.04 | 0.00 | 35 | 1012.8 |
| 20260905192625 | 85 | 17 | 1.7 | 5.2 | 0.00 | 0.04 | 0.00 | 36 | 1012.9 |
| 20260905192125 | 84 | 237 | 1.7 | 6.1 | 0.00 | 0.04 | 0.00 | 37 | 1013.0 |
| 20260905191625 | 84 | 143 | 2.6 | 7.8 | 0.00 | 0.04 | 0.00 | 37 | 1013.1 |
| 20260905191125 | 83 | 254 | 0.0 | 7.8 | 0.00 | 0.04 | 0.00 | 40 | 1013.0 |
| 20260905190625 | 83 | 142 | 3.5 | 7.0 | 0.00 | 0.04 | 0.00 | 41 | 1013.1 |
| 20260905190125 | 84 | 142 | 1.7 | 5.2 | 0.00 | 0.04 | 0.00 | 41 | 1013.1 |
| 20260905185655 | 83 | 130 | 0.9 | 5.2 | 0.00 | 0.04 | 0.00 | 42 | 1013.1 |
| 20260905184625 | 83 | 335 | 0.0 | 6.1 | 0.00 | 0.04 | 0.00 | 42 | 1013.1 |
| 20260905184125 | 83 | 133 | 2.6 | 5.2 | 0.00 | 0.04 | 0.00 | 43 | 1013.2 |
| 20260905183626 | 83 | 218 | 0.0 | 4.3 | 0.00 | 0.04 | 0.00 | 44 | 1013.3 |
| 20260905182625 | 82 | 258 | 0.9 | 6.1 | 0.00 | 0.04 | 0.00 | 46 | 1013.3 |
| 20260905182155 | 81 | 115 | 1.7 | 6.1 | 0.00 | 0.04 | 0.00 | 47 | 1013.3 |
| 20260905181625 | 81 | 128 | 0.9 | 2.6 | 0.00 | 0.04 | 0.00 | 49 | 1013.3 |
| 20260905180625 | 81 | 360 | 0.9 | 1.7 | 0.00 | 0.04 | 0.00 | 49 | 1013.3 |
| 20260905180125 | 80 | 285 | 1.7 | 1.7 | 0.00 | 0.04 | 0.00 | 51 | 1013.3 |
| 20260905175625 | 79 | 185 | 0.0 | 1.7 | 0.00 | 0.04 | 0.00 | 53 | 1013.3 |
| 20260905175125 | 78 | 284 | 0.0 | 1.7 | 0.00 | 0.04 | 0.00 | 54 | 1013.3 |
| 20260905174125 | 77 | 134 | 0.0 | 2.6 | 0.00 | 0.04 | 0.00 | 56 | 1013.4 |
| 20260905173625 | 76 | 234 | 0.9 | 2.6 | 0.00 | 0.04 | 0.00 | 58 | 1013.3 |
| 20260905173125 | 75 | 254 | 0.0 | 1.7 | 0.00 | 0.04 | 0.00 | 59 | 1013.3 |
| 20260905172625 | 74 | 118 | 0.9 | 2.6 | 0.00 | 0.04 | 0.00 | 59 | 1013.3 |
| 20260905172124 | 73 | 186 | 0.0 | 2.6 | 0.00 | 0.04 | 0.00 | 61 | 1013.3 |
| 20260905171654 | 72 | 65 | 0.0 | 1.7 | 0.00 | 0.04 | 0.00 | 61 | 1013.2 |
| 20260905171125 | 72 | 114 | 0.9 | 1.7 | 0.00 | 0.04 | 0.00 | 62 | 1013.2 |
| 20260905170625 | 71 | 146 | 0.9 | 1.7 | 0.00 | 0.04 | 0.00 | 62 | 1013.2 |
| 20260905170125 | 70 | 230 | 0.0 | 0.9 | 0.00 | 0.04 | 0.00 | 64 | 1013.4 |
| 20260905165624 | 69 | 186 | 0.9 | 1.7 | 0.00 | 0.04 | 0.00 | 65 | 1013.4 |
| 20260905165124 | 68 | 300 | 0.0 | 1.7 | 0.00 | 0.04 | 0.00 | 67 | 1013.5 |
| 20260905164154 | 67 | 236 | 0.9 | 1.7 | 0.00 | 0.04 | 0.00 | 70 | 1013.4 |
| 20260905163625 | 66 | 94 | 0.0 | 1.7 | 0.00 | 0.04 | 0.00 | 72 | 1013.5 |
| 20260905163124 | 65 | 10 | 0.0 | 1.7 | 0.00 | 0.04 | 0.00 | 74 | 1013.5 |
| 20260905162624 | 64 | 188 | 0.0 | 1.7 | 0.00 | 0.04 | 0.00 | 75 | 1013.3 |
| 20260905162124 | 64 | 162 | 0.0 | 1.7 | 0.00 | 0.04 | 0.00 | 77 | 1013.3 |
| 20260905161624 | 63 | 304 | 0.9 | 1.7 | 0.00 | 0.04 | 0.00 | 77 | 1013.3 |
| 20260905161125 | 62 | 113 | 0.0 | 1.7 | 0.00 | 0.04 | 0.00 | 79 | 1013.3 |
| 20260905160625 | 62 | 142 | 0.0 | 1.7 | 0.00 | 0.04 | 0.00 | 80 | 1013.3 |
| 20260905160124 | 61 | 137 | 0.0 | 1.7 | 0.00 | 0.04 | 0.00 | 82 | 1013.3 |
| 20260905155625 | 61 | 121 | 0.9 | 1.7 | 0.00 | 0.04 | 0.00 | 82 | 1013.3 |
| 20260905155125 | 60 | 127 | 0.0 | 2.6 | 0.00 | 0.04 | 0.00 | 83 | 1013.3 |
| 20260905154624 | 59 | 103 | 0.0 | 2.6 | 0.00 | 0.04 | 0.00 | 84 | 1013.4 |
| 20260905154125 | 59 | 121 | 0.9 | 1.7 | 0.00 | 0.04 | 0.00 | 85 | 1013.3 |
| 20260905153624 | 59 | 101 | 0.9 | 2.6 | 0.00 | 0.04 | 0.00 | 86 | 1013.4 |
| 20260905153125 | 58 | 111 | 0.9 | 2.6 | 0.00 | 0.04 | 0.00 | 88 | 1013.3 |
| 20260905152625 | 57 | 360 | 0.0 | 1.7 | 0.00 | 0.04 | 0.00 | 89 | 1013.3 |
| 20260905151624 | 57 | 114 | 0.0 | 1.7 | 0.00 | 0.04 | 0.00 | 89 | 1013.3 |
| 20260905151124 | 57 | 107 | 0.9 | 1.7 | 0.00 | 0.04 | 0.00 | 90 | 1013.2 |
| 20260905150125 | 56 | 72 | 0.0 | 0.0 | 0.00 | 0.04 | 0.00 | 91 | 1013.2 |
| 20260905145125 | 56 | 75 | 0.0 | 1.7 | 0.00 | 0.04 | 0.00 | 91 | 1013.3 |
| 20260905144624 | 56 | 43 | 0.0 | 0.0 | 0.00 | 0.04 | 0.00 | 91 | 1013.3 |
| 20260905144124 | 56 | 28 | 0.0 | 0.0 | 0.00 | 0.04 | 0.00 | 91 | 1013.2 |
| 20260905143625 | 56 | 9 | 0.0 | 0.0 | 0.00 | 0.04 | 0.00 | 91 | 1013.1 |
| 20260905143125 | 55 | 9 | 0.0 | 0.0 | 0.00 | 0.04 | 0.00 | 91 | 1013.0 |
| 20260905142124 | 55 | 11 | 0.0 | 0.0 | 0.00 | 0.04 | 0.00 | 92 | 1013.0 |
| 20260905141624 | 55 | 11 | 0.0 | 1.7 | 0.00 | 0.04 | 0.00 | 92 | 1012.9 |
| 20260905140624 | 55 | 360 | 0.0 | 0.9 | 0.00 | 0.04 | 0.00 | 92 | 1012.7 |
| 20260905140124 | 55 | 360 | 0.0 | 1.7 | 0.00 | 0.04 | 0.00 | 91 | 1012.6 |
| 20260905134624 | 55 | 9 | 0.0 | 0.9 | 0.00 | 0.04 | 0.00 | 92 | 1012.6 |
| 20260905134124 | 55 | 355 | 0.0 | 1.7 | 0.00 | 0.04 | 0.00 | 92 | 1012.6 |
| 20260905133624 | 55 | 9 | 0.0 | 1.7 | 0.00 | 0.04 | 0.00 | 92 | 1012.5 |
| 20260905133124 | 55 | 339 | 0.0 | 0.0 | 0.00 | 0.04 | 0.00 | 92 | 1012.5 |
| 20260905132624 | 55 | 338 | 0.0 | 1.7 | 0.00 | 0.04 | 0.00 | 92 | 1012.5 |
| 20260905132125 | 55 | 338 | 0.0 | 1.7 | 0.00 | 0.04 | 0.00 | 92 | 1012.4 |
| 20260905131624 | 55 | 340 | 0.0 | 1.7 | 0.00 | 0.04 | 0.00 | 92 | 1012.3 |
| 20260905130624 | 55 | 344 | 0.0 | 1.7 | 0.00 | 0.04 | 0.00 | 92 | 1012.3 |
| 20260905130154 | 55 | 344 | 0.0 | 1.7 | 0.00 | 0.04 | 0.00 | 92 | 1012.3 |
| 20260905125624 | 55 | 345 | 0.0 | 1.7 | 0.00 | 0.04 | 0.00 | 92 | 1012.3 |
| 20260905125124 | 55 | 345 | 0.0 | 1.7 | 0.00 | 0.04 | 0.00 | 92 | 1012.3 |
| 20260905124624 | 55 | 331 | 0.0 | 1.7 | 0.00 | 0.04 | 0.00 | 91 | 1012.1 |
| 20260905124124 | 55 | 339 | 0.0 | 0.9 | 0.00 | 0.04 | 0.00 | 91 | 1012.1 |
| 20260905123624 | 55 | 328 | 0.0 | 1.7 | 0.00 | 0.04 | 0.00 | 91 | 1012.1 |
| 20260905123124 | 55 | 327 | 0.0 | 1.7 | 0.00 | 0.04 | 0.00 | 91 | 1012.2 |
| 20260905122624 | 55 | 330 | 0.9 | 0.9 | 0.00 | 0.04 | 0.00 | 92 | 1012.2 |
| 20260905122124 | 55 | 330 | 0.0 | 0.0 | 0.00 | 0.04 | 0.00 | 92 | 1012.1 |
| 20260905121624 | 55 | 330 | 0.0 | 0.0 | 0.00 | 0.04 | 0.00 | 92 | 1012.1 |
| 20260905121124 | 55 | 330 | 0.0 | 0.9 | 0.00 | 0.04 | 0.00 | 92 | 1012.1 |
| 20260905120624 | 55 | 332 | 0.0 | 1.7 | 0.00 | 0.04 | 0.00 | 91 | 1012.2 |
| 20260905120124 | 55 | 331 | 0.9 | 1.7 | 0.00 | 0.04 | 0.00 | 91 | 1012.1 |
| 20260905115124 | 55 | 326 | 1.7 | 1.7 | 0.00 | 0.04 | 0.00 | 92 | 1012.2 |
| 20260905114624 | 55 | 350 | 0.0 | 0.0 | 0.00 | 0.04 | 0.00 | 92 | 1012.2 |
| 20260905114124 | 55 | 350 | 0.0 | 0.0 | 0.00 | 0.04 | 0.00 | 91 | 1012.2 |
| 20260905113624 | 55 | 355 | 0.0 | 0.0 | 0.00 | 0.04 | 0.00 | 91 | 1012.3 |
| 20260905113124 | 55 | 355 | 0.0 | 0.0 | 0.00 | 0.04 | 0.00 | 92 | 1012.3 |
| 20260905112624 | 55 | 355 | 0.0 | 0.0 | 0.00 | 0.04 | 0.00 | 92 | 1012.3 |
| 20260905112124 | 55 | 355 | 0.0 | 0.0 | 0.00 | 0.04 | 0.00 | 92 | 1012.2 |
| 20260905111624 | 55 | 355 | 0.0 | 0.0 | 0.00 | 0.04 | 0.00 | 92 | 1012.4 |
| 20260905111124 | 55 | 355 | 0.0 | 0.0 | 0.00 | 0.04 | 0.00 | 92 | 1012.4 |
| 20260905110654 | 56 | 345 | 0.0 | 0.0 | 0.00 | 0.04 | 0.00 | 92 | 1012.4 |
| 20260905110154 | 56 | 338 | 0.0 | 0.0 | 0.00 | 0.04 | 0.00 | 92 | 1012.3 |
| 20260905105624 | 56 | 331 | 0.0 | 0.0 | 0.00 | 0.04 | 0.00 | 92 | 1012.5 |
| 20260905105124 | 56 | 331 | 0.0 | 0.0 | 0.00 | 0.04 | 0.00 | 92 | 1012.5 |
| 20260905104624 | 56 | 331 | 0.0 | 0.0 | 0.00 | 0.04 | 0.00 | 92 | 1012.5 |
| 20260905103624 | 56 | 330 | 0.0 | 0.0 | 0.00 | 0.04 | 0.00 | 92 | 1012.6 |
| 20260905103124 | 56 | 330 | 0.0 | 0.0 | 0.00 | 0.04 | 0.00 | 92 | 1012.6 |
| 20260905102124 | 55 | 330 | 0.0 | 0.0 | 0.00 | 0.04 | 0.00 | 92 | 1012.6 |
| 20260905101624 | 55 | 330 | 0.0 | 0.0 | 0.00 | 0.04 | 0.00 | 92 | 1012.7 |
| 20260905101124 | 55 | 330 | 0.0 | 0.0 | 0.00 | 0.04 | 0.00 | 92 | 1012.7 |
| 20260905100624 | 55 | 330 | 0.0 | 0.0 | 0.00 | 0.04 | 0.00 | 92 | 1012.6 |
| 20260905100124 | 55 | 330 | 0.0 | 0.0 | 0.00 | 0.04 | 0.00 | 91 | 1012.7 |
| 20260905095624 | 55 | 330 | 0.0 | 0.0 | 0.00 | 0.04 | 0.00 | 89 | 1012.7 |
| 20260905094624 | 54 | 330 | 0.0 | 0.0 | 0.00 | 0.04 | 0.00 | 86 | 1012.7 |
| 20260905094124 | 54 | 330 | 0.0 | 0.0 | 0.00 | 0.04 | 0.00 | 88 | 1012.8 |
| 20260905093624 | 54 | 330 | 0.0 | 0.0 | 0.00 | 0.04 | 0.00 | 88 | 1012.9 |
| 20260905092623 | 54 | 330 | 0.0 | 0.0 | 0.00 | 0.04 | 0.00 | 87 | 1012.9 |
| 20260905092124 | 54 | 330 | 0.0 | 0.0 | 0.00 | 0.04 | 0.00 | 87 | 1012.9 |
| 20260905091153 | 54 | 330 | 0.0 | 0.0 | 0.00 | 0.04 | 0.00 | 86 | 1013.0 |
| 20260905090624 | 54 | 330 | 0.0 | 0.0 | 0.00 | 0.04 | 0.00 | 87 | 1013.0 |
| 20260905090123 | 54 | 330 | 0.0 | 1.7 | 0.00 | 0.04 | 0.00 | 87 | 1013.0 |
| 20260905085624 | 55 | 330 | 0.0 | 1.7 | 0.00 | 0.04 | 0.00 | 87 | 1013.1 |
| 20260905084624 | 55 | 327 | 0.0 | 0.0 | 0.00 | 0.04 | 0.00 | 87 | 1013.2 |
| 20260905084154 | 55 | 327 | 0.0 | 0.9 | 0.00 | 0.04 | 0.00 | 87 | 1013.2 |
| 20260905083624 | 55 | 326 | 0.0 | 1.7 | 0.00 | 0.04 | 0.00 | 87 | 1013.2 |
| 20260905083123 | 55 | 326 | 0.9 | 1.7 | 0.00 | 0.04 | 0.00 | 86 | 1013.2 |
| 20260905082624 | 55 | 302 | 0.0 | 0.0 | 0.00 | 0.04 | 0.00 | 86 | 1013.2 |
| 20260905082123 | 55 | 302 | 0.0 | 0.0 | 0.00 | 0.04 | 0.00 | 86 | 1013.2 |
| 20260905081623 | 55 | 302 | 0.0 | 0.0 | 0.00 | 0.04 | 0.00 | 86 | 1013.2 |
| 20260905081124 | 55 | 302 | 0.0 | 0.0 | 0.00 | 0.04 | 0.00 | 86 | 1013.3 |
| 20260905080623 | 55 | 302 | 0.0 | 0.0 | 0.00 | 0.04 | 0.00 | 85 | 1013.4 |
| 20260905080154 | 56 | 302 | 0.0 | 0.0 | 0.00 | 0.04 | 0.00 | 85 | 1013.4 |
| 20260905075624 | 56 | 302 | 0.0 | 0.0 | 0.00 | 0.04 | 0.00 | 85 | 1013.3 |
| 20260905075154 | 56 | 302 | 0.0 | 0.0 | 0.00 | 0.04 | 0.00 | 84 | 1013.3 |
| 20260905074624 | 56 | 302 | 0.0 | 0.0 | 0.00 | 0.04 | 0.00 | 85 | 1013.3 |
| 20260905074124 | 56 | 302 | 0.0 | 0.0 | 0.00 | 0.04 | 0.00 | 84 | 1013.3 |
| 20260905073624 | 56 | 302 | 0.0 | 0.0 | 0.00 | 0.04 | 0.00 | 85 | 1013.2 |
| 20260905072624 | 57 | 302 | 0.0 | 0.0 | 0.00 | 0.04 | 0.00 | 85 | 1013.4 |
| 20260905072124 | 57 | 302 | 0.0 | 0.0 | 0.00 | 0.04 | 0.00 | 84 | 1013.4 |
| 20260905071623 | 57 | 302 | 0.0 | 0.0 | 0.00 | 0.04 | 0.00 | 84 | 1013.4 |
| 20260905071123 | 57 | 302 | 0.0 | 0.0 | 0.00 | 0.04 | 0.00 | 86 | 1013.3 |
| 20260905070623 | 57 | 302 | 0.0 | 0.0 | 0.00 | 0.04 | 0.00 | 85 | 1013.4 |
| 20260905070153 | 57 | 300 | 0.0 | 0.0 | 0.00 | 0.04 | 0.00 | 85 | 1013.3 |
| 20260905065654 | 57 | 300 | 0.0 | 0.0 | 0.00 | 0.04 | 0.04 | 85 | 1013.2 |
| 20260905065154 | 58 | 298 | 0.0 | 0.0 | 0.00 | 0.04 | 0.04 | 83 | 1013.1 |
| 20260905064653 | 58 | 298 | 0.0 | 0.0 | 0.00 | 0.04 | 0.04 | 82 | 1013.0 |
| 20260905064153 | 58 | 298 | 0.0 | 0.0 | 0.00 | 0.04 | 0.04 | 83 | 1012.9 |
| 20260905063653 | 58 | 298 | 0.0 | 0.9 | 0.00 | 0.04 | 0.04 | 84 | 1012.9 |
| 20260905063153 | 58 | 298 | 0.0 | 1.7 | 0.00 | 0.04 | 0.04 | 84 | 1013.0 |
| 20260905062653 | 59 | 290 | 0.9 | 1.7 | 0.00 | 0.04 | 0.04 | 84 | 1013.0 |
| 20260905062153 | 59 | 246 | 0.0 | 0.0 | 0.00 | 0.04 | 0.04 | 83 | 1013.0 |
| 20260905061653 | 59 | 246 | 0.0 | 0.0 | 0.00 | 0.04 | 0.04 | 84 | 1013.1 |
| 20260905060653 | 59 | 244 | 0.0 | 0.0 | 0.00 | 0.04 | 0.04 | 84 | 1013.0 |
| 20260905055153 | 60 | 244 | 0.0 | 0.0 | 0.00 | 0.04 | 0.04 | 84 | 1013.0 |
| 20260905054653 | 60 | 244 | 0.0 | 0.0 | 0.00 | 0.04 | 0.04 | 83 | 1013.0 |
| 20260905054153 | 60 | 246 | 0.0 | 0.0 | 0.00 | 0.04 | 0.04 | 85 | 1013.1 |
| 20260905053653 | 60 | 244 | 0.0 | 0.0 | 0.00 | 0.04 | 0.04 | 84 | 1013.0 |
| 20260905053153 | 60 | 244 | 0.0 | 0.0 | 0.00 | 0.04 | 0.04 | 84 | 1013.0 |
| 20260905052653 | 61 | 244 | 0.0 | 0.0 | 0.00 | 0.04 | 0.04 | 84 | 1013.1 |
| 20260905052153 | 61 | 244 | 0.0 | 0.0 | 0.00 | 0.04 | 0.04 | 84 | 1013.2 |
| 20260905051153 | 61 | 244 | 0.0 | 0.0 | 0.00 | 0.04 | 0.04 | 83 | 1013.3 |
| 20260905050653 | 61 | 239 | 0.0 | 0.0 | 0.00 | 0.04 | 0.04 | 83 | 1013.3 |
| 20260905050153 | 61 | 262 | 0.0 | 0.9 | 0.00 | 0.04 | 0.04 | 83 | 1013.3 |
| 20260905045653 | 61 | 262 | 0.0 | 0.9 | 0.00 | 0.04 | 0.04 | 83 | 1013.1 |
| 20260905045154 | 61 | 273 | 0.0 | 0.0 | 0.00 | 0.04 | 0.04 | 83 | 1013.1 |
| 20260905044153 | 62 | 273 | 0.0 | 0.0 | 0.00 | 0.04 | 0.04 | 82 | 1013.0 |
| 20260905043653 | 62 | 279 | 0.0 | 1.7 | 0.00 | 0.04 | 0.04 | 82 | 1012.9 |
| 20260905043153 | 62 | 333 | 0.0 | 1.7 | 0.00 | 0.04 | 0.04 | 82 | 1012.9 |
| 20260905042653 | 62 | 329 | 0.0 | 0.9 | 0.00 | 0.04 | 0.04 | 81 | 1012.9 |
| 20260905042153 | 62 | 227 | 0.0 | 1.7 | 0.00 | 0.04 | 0.04 | 81 | 1013.0 |
| 20260905041653 | 62 | 146 | 0.0 | 1.7 | 0.00 | 0.04 | 0.04 | 81 | 1012.8 |
| 20260905041153 | 63 | 223 | 0.0 | 0.0 | 0.00 | 0.04 | 0.04 | 81 | 1012.9 |
| 20260905040653 | 63 | 223 | 0.0 | 1.7 | 0.00 | 0.04 | 0.04 | 80 | 1012.9 |
| 20260905035654 | 63 | 278 | 0.0 | 1.7 | 0.00 | 0.04 | 0.04 | 80 | 1012.7 |
| 20260905035153 | 63 | 346 | 0.9 | 1.7 | 0.00 | 0.04 | 0.04 | 79 | 1012.6 |
| 20260905034653 | 63 | 214 | 0.0 | 1.7 | 0.00 | 0.04 | 0.04 | 79 | 1012.6 |
| 20260905034153 | 64 | 242 | 0.0 | 2.6 | 0.00 | 0.04 | 0.04 | 78 | 1012.5 |
| 20260905033653 | 64 | 273 | 0.0 | 2.6 | 0.00 | 0.04 | 0.04 | 78 | 1012.4 |
| 20260905033153 | 64 | 251 | 0.0 | 2.6 | 0.00 | 0.04 | 0.04 | 78 | 1012.4 |
| 20260905032653 | 64 | 261 | 0.0 | 2.6 | 0.00 | 0.04 | 0.04 | 77 | 1012.2 |
| 20260905032153 | 65 | 38 | 0.0 | 2.6 | 0.00 | 0.04 | 0.04 | 76 | 1012.2 |
| 20260905031653 | 65 | 269 | 0.0 | 2.6 | 0.00 | 0.04 | 0.04 | 75 | 1012.2 |
| 20260905031153 | 65 | 332 | 0.0 | 2.6 | 0.00 | 0.04 | 0.04 | 75 | 1012.0 |
| 20260905030653 | 66 | 250 | 0.0 | 2.6 | 0.00 | 0.04 | 0.04 | 73 | 1012.0 |
| 20260905030153 | 66 | 303 | 1.7 | 2.6 | 0.00 | 0.04 | 0.04 | 73 | 1011.9 |
| 20260905025653 | 66 | 247 | 1.7 | 1.7 | 0.00 | 0.04 | 0.04 | 72 | 1011.9 |
| 20260905025153 | 67 | 153 | 0.0 | 4.3 | 0.00 | 0.04 | 0.04 | 71 | 1011.9 |
| 20260905024653 | 67 | 309 | 0.0 | 4.3 | 0.00 | 0.04 | 0.04 | 70 | 1011.9 |
| 20260905024153 | 68 | 281 | 0.9 | 3.5 | 0.00 | 0.04 | 0.04 | 68 | 1011.9 |
| 20260905022653 | 70 | 350 | 0.0 | 1.7 | 0.00 | 0.04 | 0.04 | 64 | 1011.8 |
| 20260905022153 | 70 | 351 | 0.0 | 2.6 | 0.00 | 0.04 | 0.04 | 63 | 1011.9 |
| 20260905021653 | 70 | 165 | 0.0 | 2.6 | 0.00 | 0.04 | 0.04 | 62 | 1011.9 |
| 20260905021153 | 71 | 298 | 0.9 | 1.7 | 0.00 | 0.04 | 0.04 | 62 | 1011.9 |
| 20260905020653 | 71 | 342 | 0.0 | 1.7 | 0.00 | 0.04 | 0.04 | 61 | 1011.9 |
| 20260905020153 | 72 | 11 | 0.0 | 1.7 | 0.00 | 0.04 | 0.04 | 61 | 1011.7 |
| 20260905015653 | 72 | 237 | 0.0 | 1.7 | 0.00 | 0.04 | 0.04 | 61 | 1011.7 |
| 20260905015153 | 72 | 281 | 0.0 | 2.6 | 0.00 | 0.04 | 0.04 | 61 | 1011.6 |
| 20260905014653 | 72 | 298 | 0.0 | 7.8 | 0.00 | 0.04 | 0.04 | 61 | 1011.7 |
| 20260905014152 | 73 | 336 | 0.9 | 7.8 | 0.00 | 0.04 | 0.04 | 61 | 1011.6 |
| 20260905013652 | 73 | 211 | 0.0 | 3.5 | 0.00 | 0.04 | 0.04 | 60 | 1011.6 |
| 20260905013153 | 73 | 327 | 1.7 | 4.3 | 0.00 | 0.04 | 0.04 | 60 | 1011.6 |
| 20260905012652 | 74 | 137 | 0.9 | 4.3 | 0.00 | 0.04 | 0.04 | 60 | 1011.6 |
| 20260905012153 | 74 | 281 | 0.0 | 3.5 | 0.00 | 0.04 | 0.04 | 59 | 1011.6 |
| 20260905011152 | 75 | 150 | 0.0 | 6.1 | 0.00 | 0.04 | 0.04 | 58 | 1011.6 |
| 20260905010653 | 76 | 264 | 3.5 | 6.1 | 0.00 | 0.04 | 0.04 | 57 | 1011.6 |
| 20260905010153 | 76 | 290 | 3.5 | 8.7 | 0.00 | 0.04 | 0.04 | 57 | 1011.5 |
| 20260905005652 | 78 | 296 | 6.1 | 8.7 | 0.00 | 0.04 | 0.04 | 56 | 1011.5 |
| 20260905005153 | 78 | 76 | 0.0 | 4.3 | 0.00 | 0.04 | 0.04 | 55 | 1011.5 |
| 20260905004653 | 78 | 200 | 0.0 | 4.3 | 0.00 | 0.04 | 0.04 | 54 | 1011.5 |
| 20260905004153 | 79 | 250 | 0.9 | 3.5 | 0.00 | 0.04 | 0.04 | 54 | 1011.4 |
| 20260905003122 | 79 | 269 | 1.7 | 6.1 | 0.00 | 0.04 | 0.04 | 54 | 1011.4 |
| 20260905002653 | 80 | 292 | 1.7 | 6.1 | 0.00 | 0.04 | 0.04 | 53 | 1011.6 |
| 20260905002153 | 80 | 355 | 2.6 | 3.5 | 0.00 | 0.04 | 0.04 | 52 | 1011.5 |
| 20260905001652 | 80 | 276 | 0.0 | 6.1 | 0.00 | 0.04 | 0.04 | 53 | 1011.5 |
| 20260905001153 | 81 | 337 | 1.7 | 6.1 | 0.00 | 0.04 | 0.04 | 52 | 1011.5 |
| 20260905000653 | 81 | 20 | 1.7 | 6.1 | 0.00 | 0.04 | 0.04 | 52 | 1011.5 |
| 20260905000153 | 81 | 278 | 0.0 | 6.1 | 0.00 | 0.04 | 0.04 | 52 | 1011.5 |
| 20260904235652 | 81 | 246 | 0.0 | 6.1 | 0.00 | 0.04 | 0.04 | 52 | 1011.5 |
| 20260904235153 | 82 | 60 | 3.5 | 5.2 | 0.00 | 0.04 | 0.04 | 51 | 1011.5 |
| 20260904234652 | 82 | 219 | 0.9 | 5.2 | 0.00 | 0.04 | 0.04 | 50 | 1011.5 |
| 20260904234153 | 82 | 309 | 0.9 | 5.2 | 0.00 | 0.04 | 0.04 | 49 | 1011.5 |
| 20260904233652 | 83 | 76 | 0.0 | 5.2 | 0.00 | 0.04 | 0.04 | 49 | 1011.4 |
| 20260904233152 | 83 | 197 | 0.9 | 5.2 | 0.00 | 0.04 | 0.04 | 49 | 1011.4 |
| 20260904232653 | 83 | 238 | 1.7 | 9.6 | 0.00 | 0.04 | 0.04 | 49 | 1011.4 |
| 20260904232152 | 83 | 312 | 0.0 | 9.6 | 0.00 | 0.04 | 0.04 | 49 | 1011.3 |
| 20260904231653 | 83 | 282 | 0.0 | 5.2 | 0.00 | 0.04 | 0.04 | 48 | 1011.3 |
| 20260904231153 | 84 | 338 | 0.9 | 5.2 | 0.00 | 0.04 | 0.04 | 47 | 1011.3 |
| 20260904230652 | 84 | 276 | 2.6 | 5.2 | 0.00 | 0.04 | 0.04 | 47 | 1011.2 |
| 20260904230152 | 85 | 17 | 1.7 | 5.2 | 0.00 | 0.04 | 0.04 | 47 | 1011.3 |
| 20260904225652 | 85 | 317 | 0.9 | 5.2 | 0.00 | 0.04 | 0.04 | 46 | 1011.3 |
| 20260904225152 | 85 | 176 | 0.0 | 4.3 | 0.00 | 0.04 | 0.04 | 46 | 1011.3 |
| 20260904224652 | 85 | 128 | 0.9 | 4.3 | 0.00 | 0.04 | 0.04 | 46 | 1011.3 |
| 20260904224153 | 85 | 269 | 2.6 | 3.5 | 0.00 | 0.04 | 0.04 | 46 | 1011.3 |
| 20260904223652 | 85 | 310 | 2.6 | 4.3 | 0.00 | 0.04 | 0.04 | 46 | 1011.3 |
| 20260904222752 | 85 | 299 | 0.9 | 5.2 | 0.00 | 0.04 | 0.04 | 45 | 1011.3 |
| 20260904222253 | 85 | 52 | 0.0 | 4.3 | 0.00 | 0.04 | 0.04 | 45 | 1011.4 |
| 20260904221752 | 85 | 176 | 0.0 | 4.3 | 0.00 | 0.04 | 0.04 | 44 | 1011.4 |
| 20260904221252 | 86 | 55 | 0.9 | 4.3 | 0.00 | 0.04 | 0.04 | 44 | 1011.4 |
| 20260904220752 | 86 | 223 | 2.6 | 4.3 | 0.00 | 0.04 | 0.04 | 44 | 1011.4 |
| 20260904220252 | 86 | 236 | 0.9 | 4.3 | 0.00 | 0.04 | 0.04 | 44 | 1011.4 |
| 20260904215752 | 87 | 238 | 0.0 | 0.0 | 0.00 | 0.04 | 0.04 | 41 | 1011.4 |
| 20260904215252 | 89 | 277 | 0.0 | 1.7 | 0.00 | 0.04 | 0.04 | 40 | 1011.4 |
| 20260904214252 | 90 | 20 | 0.0 | 5.2 | 0.00 | 0.04 | 0.04 | 40 | 1011.5 |
| 20260904213752 | 90 | 82 | 0.9 | 1.7 | 0.00 | 0.04 | 0.04 | 40 | 1011.5 |
| 20260904213252 | 90 | 303 | 0.0 | 1.7 | 0.00 | 0.04 | 0.04 | 40 | 1011.4 |
| 20260904212752 | 90 | 311 | 0.0 | 2.6 | 0.00 | 0.04 | 0.04 | 39 | 1011.5 |
| 20260904212252 | 90 | 315 | 0.0 | 4.3 | 0.04 | 0.04 | 0.04 | 38 | 1011.5 |
| 20260904211752 | 90 | 41 | 0.0 | 4.3 | 0.04 | 0.04 | 0.04 | 37 | 1011.6 |
| 20260904211252 | 90 | 9 | 0.0 | 1.7 | 0.04 | 0.04 | 0.04 | 36 | 1011.7 |
| 20260904210752 | 90 | 340 | 0.0 | 2.6 | 0.04 | 0.04 | 0.04 | 36 | 1011.6 |
| 20260904205752 | 91 | 57 | 0.0 | 3.5 | 0.04 | 0.04 | 0.04 | 34 | 1011.7 |
| 20260904205252 | 90 | 296 | 0.0 | 4.3 | 0.04 | 0.04 | 0.04 | 35 | 1011.7 |
| 20260904204752 | 90 | 267 | 1.7 | 4.3 | 0.04 | 0.04 | 0.04 | 34 | 1011.7 |
| 20260904204252 | 90 | 113 | 0.0 | 1.7 | 0.04 | 0.04 | 0.04 | 34 | 1011.8 |
| 20260904203753 | 90 | 344 | 0.0 | 0.0 | 0.04 | 0.04 | 0.04 | 35 | 1011.9 |
| 20260904203252 | 91 | 346 | 0.0 | 0.0 | 0.04 | 0.04 | 0.04 | 35 | 1011.9 |
| 20260904202752 | 91 | 15 | 0.0 | 0.0 | 0.04 | 0.04 | 0.04 | 33 | 1011.9 |
| 20260904201752 | 87 | 218 | 0.0 | 0.0 | 0.00 | 0.00 | 0.00 | 37 | 1011.9 |
| 20260904201252 | 87 | 218 | 0.0 | 0.0 | 0.00 | 0.00 | 0.00 | 36 | 1012.0 |
| 20260904200752 | 86 | 218 | 0.0 | 0.0 | 0.00 | 0.00 | 0.00 | 37 | 1012.0 |
| 20260904200252 | 87 | 218 | 0.0 | 0.0 | 0.00 | 0.00 | 0.00 | 36 | 1012.0 |
| 20260904195752 | 87 | 218 | 0.0 | 0.0 | 0.00 | 0.00 | 0.00 | 36 | 1012.0 |